Torna al catalogo

YAM-9

AttivoMilitareSSO
NORAD 66694·PAYLOAD·🇺🇸 United States

Lanciato Nov 28, 2025 da Vandenberg Space Force Base

Loading…

Prossimi Passaggi (prossime 24 ore)

TLE

AggiornatoSource: Space-Track

Epoca: Sep 14, 2026, 11:20 UTC

1 66694U 25276AE  26257.47224838  .00004167  00000-0  22193-3 0  9991
2 66694  97.4135 327.9035 0008677  13.0673 347.0783 15.15719501 43878

Traccia YAM-9 in tempo reale con AllMySat

Download on the App Store